GW0762 Weather Reports


time (UTC)temp
F
wind
direction
speed
knots
gust
knots
rain 1hr
in
rain 24hr
in
rain mn
in
humidity
%
barometer
mb
20260505071600 51 0 0.0 0.0 0.00 0.00 0.00 90 1009.7
20260505070100 51 0 0.0 0.0 0.00 0.00 0.00 91 1009.8
20260505064600 51 0 0.0 0.0 0.00 0.00 0.00 90 1009.9
20260505063102 51 0 0.0 0.0 0.00 0.00 0.00 90 1009.9
20260505061605 52 0 0.0 0.0 0.00 0.00 0.00 90 1010.0
20260505060059 52 0 0.0 0.0 0.00 0.00 0.00 90 1010.1
20260505054601 52 0 0.0 0.0 0.00 0.00 0.00 90 1010.1
20260505053107 52 0 0.0 0.0 0.00 0.00 0.00 90 1010.0
20260505051601 53 0 0.0 0.0 0.00 0.00 0.00 89 1010.0
20260505050128 53 0 0.0 0.0 0.00 0.00 0.00 89 1009.9
20260505041607 54 0 0.0 0.0 0.00 0.00 0.00 89 1009.3
20260505034602 55 0 0.0 0.0 0.00 0.00 0.00 88 1009.1
20260505033059 55 0 0.0 0.0 0.00 0.00 0.00 88 1009.0
20260505031600 56 0 0.0 0.0 0.00 0.00 0.00 87 1009.0
20260505030100 56 0 0.0 0.0 0.00 0.00 0.00 87 1009.0
20260505024559 57 0 0.0 0.0 0.00 0.00 0.00 86 1008.9
20260505023059 58 0 0.0 0.0 0.00 0.00 0.00 86 1008.8
20260505021602 58 0 0.0 0.0 0.00 0.00 0.00 85 1008.8
20260505020058 59 0 0.0 0.0 0.00 0.00 0.00 84 1008.7
20260505014626 60 0 0.0 0.0 0.00 0.00 0.00 83 1008.7
20260505013059 61 0 0.0 0.0 0.00 0.00 0.00 83 1008.7
20260505011605 62 0 0.0 0.0 0.00 0.00 0.00 81 1008.7
20260505010059 63 0 0.0 0.0 0.00 0.00 0.00 80 1008.7
20260505004559 64 0 0.0 0.0 0.00 0.00 0.00 77 1008.6
20260505003101 65 0 0.0 0.9 0.00 0.00 0.00 74 1008.4
20260505001631 66 0 0.0 0.9 0.00 0.00 0.00 72 1008.4
20260505000136 68 0 0.0 0.9 0.00 0.00 0.00 70 1008.4
20260504234613 70 0 0.0 1.7 0.00 0.00 0.00 67 1008.6
20260504233109 72 0 0.0 1.7 0.00 0.00 0.00 64 1008.4
20260504231557 74 360 0.0 2.6 0.00 0.00 0.00 60 1008.3
20260504230056 75 360 0.0 4.3 0.00 0.00 0.00 58 1008.3
20260504224611 76 360 1.7 7.0 0.00 0.00 0.00 56 1008.4
20260504223100 76 0 0.0 2.6 0.00 0.00 0.00 59 1008.6
20260504221559 77 0 0.9 2.6 0.00 0.00 0.00 53 1008.7
20260504220101 78 0 0.9 4.3 0.00 0.00 0.00 52 1008.8
20260504214602 79 269 2.6 8.7 0.00 0.00 0.00 45 1008.7
20260504213130 78 227 1.7 13.0 0.00 0.00 0.00 45 1008.9
20260504211605 79 355 3.5 9.6 0.00 0.00 0.00 45 1008.9
20260504210058 77 321 2.6 8.7 0.00 0.00 0.00 49 1009.0
20260504204558 78 348 2.6 10.4 0.00 0.00 0.00 50 1009.1
20260504203121 77 296 2.6 8.7 0.00 0.00 0.00 52 1009.3
20260504201558 76 329 3.5 8.7 0.00 0.00 0.00 55 1009.4
20260504200057 75 355 3.5 11.3 0.00 0.00 0.00 52 1009.6
20260504194606 74 338 5.2 13.0 0.00 0.00 0.00 52 1009.9
20260504193111 73 309 3.5 9.6 0.00 0.00 0.00 53 1010.1
20260504191600 72 0 3.5 9.6 0.00 0.00 0.00 59 1010.5
20260504190115 70 189 3.5 8.7 0.00 0.00 0.00 61 1010.7
20260504184606 69 0 0.9 5.2 0.00 0.00 0.00 66 1011.3
20260504183056 70 244 1.7 8.7 0.00 0.00 0.00 56 1011.9
20260504181558 71 360 1.7 13.0 0.00 0.00 0.00 53 1011.2
20260504180131 72 313 4.3 13.9 0.00 0.00 0.00 52 1010.7
20260504174612 73 336 2.6 9.6 0.00 0.00 0.00 52 1010.5
20260504173106 72 302 4.3 12.2 0.00 0.00 0.00 56 1010.6
20260504171558 70 0 2.6 8.7 0.00 0.00 0.00 54 1010.8
20260504140109 58 0 1.7 7.0 0.00 0.00 0.00 74 1014.0
20260504110118 42 0 0.0 0.9 0.00 0.00 0.00 90 1013.2
20260504100106 42 0 0.0 0.0 0.00 0.00 0.00 89 1013.2
20260504090123 42 0 0.0 0.0 0.00 0.00 0.00 88 1013.8
20260504081559 44 0 0.0 0.9 0.00 0.00 0.00 88 1013.9